EHI
0 0 0 0 0 0 0 0 0 0 0 0 0 0 0 0 0 0 0 0 0 0 0 0 0 0 0 0 0 0 0 0 0 0 0 0 0 0 0 0 0 0 0
0 0 0 0 0 0 0 0 0 0 0 0 0 0 0 0 0 0 0 0 0 0 0 0 0 0 0 0 0 0 0 0 0 0 0 0 0 0 0 0 0 0 0
0 0 0 0 0 0 0 0 0 0 0 0 0 0 0 0 0 0 0 0 0 0 0 0 0 0 0 0 0 0 0 0 0 0 0 0 0 0 0 0 0 0 0
0 0 0 0 0 0 0 0 0 0 0 0 0 0 0 0 0 0 0 0 0 0 0 0 0 0 0 0 0 0 0 0 0 0 0 0 0 0 0 0 0 0 0
0 0 0 0 0 0 0 0 0 0 0 0 0 0 0 0 0 0 0 0 0 0 0 0 0 0 0 0 0 0 0 0 0 0 0 0 0 0 0 0 0 0 0
0 0 0 0 0 0 0 0 0 0 0 0 0 0 0 0 0 0 0 0 0 0 0 0 0 0 0 0 0 0 0 0 0 0 0 0 0 0 0 0 0 0 0
0 0 0 0 0 0 0 0 0 0 0 0 0 0 0 0 0 0 0 0 0 0 0 0 0 0 0 0 0 0 0 0 0 0 0 0 0 0 0 0 0 0 0
0 0 0 0 0 0 0 0 0 0 0 0 0 0 0 0 0 0 0 0 0 0 0 0 0 0 0 0 0 0 0 0 0 0 0 0 0 0 0 0 0 0 0
0 0 0 0 0 0 0 0 0 0 0 0 0 0 0 0 0 0 0 0 0 0 0 0 0 0 0 0 0 0 0 0 0 0 0 0 0 0 0 0 0 0 0
0 0 0 0 0 0 0 0 0 0 0 0 0 0 0 0 0 0 0 0 0 0 0 0 0 0 0 0 0 0 0 0 0 0 0 0 0 0 0 0 0 0 0
0 0 0 0 0 0 0 0 0 0 0 0 0 0 0 0 0 0 0 0 0 0 0 0 0 0 0 0 0 0 0 0 0 0 0 0 0 0 0 0 0 0 0
0 0 0 0 0 0 0 0 0 0 0 0 0 0 0 0 0 0 0 0 0 0 0 0 0 0 0 0 0 0 0 0 0 0 0 0 0 0 0 0 0 0 0
0 0 0 0 0 0 0 0 0 0 0 0 0 0 0 0 0 0 0 0 0 0 0 0 0 0 0 0 0 0 0 0 0 0 0 0 0 0 0 0 0 0 0
0 0 0 0 0 0 0 0 0 0 0 0 0 0 0 0 0 0 0 0 0 0 0 0 0 0 0 0 0 0 0 0 0 0 0 0 0 0 0 0 0 0 0
0 0 0 0 0 0 0 0 0 0 0 0 0 0 0 0 0 0 0 0 0 0 0 0 0 0 0 0 0 0 0 0 0 0 0 0 0 0 0 0 0 0 0
0 0 0 0 0 0 0 0 0 0 0 0 0 0 0 0 0 0 0 0 0 0 0 0 0 0 0 0 0 0 0 0 0 0 0 0 0 0 0 0 0 0 0
0 0 0 0 0 0 0 0 0 0 0 0 0 0 0 0 0 0 0 0 0 0 0 0 0 0 0 0 0 0 0 0 0 0 0 0 0 0 0 0 0 0 0
0 0 0 0 0 0 0 0 0 0 0 0 0 0 0 0 0 0 0 0 0 0 0 0 0 0 0 0 0 0 0 0 0 0 0 0 0 0 0 0 0 0 0
0 0 0 0 0 0 0 0 0 0 0 0 0 0 0 0 0 0 0 0 0 0 0 0 0 0 0 0 0 0 0 0 0 0 0 0 0 0 0 0 0 0 0
0 0 0 0 0 0 0 0 0 0 0 0 0 0 0 0 0 0 0 0 0 0 0 0 0 0 0 0 0 0 0 0 0 0 0 0 0 0 0 0 0 0 0
0 0 0 0 0 0 0 0 0 0 0 0 0 0 0 0 0 0 0 0 0 0 0 0 0 0 0 0 0 0 0 0 0 0 0 0 0 0 0 0 0 0 0
0 0 0 0 0 0 0 0 0 0 0 0 0 0 0 0 0 0 0 0 0 0 0 0 0 0 0 0 0 0 0 0 0 0 0 0 0 0 0 0 0 0 0
0 0 0 0 0 0 0 0 0 0 0 0 0 0 0 0 0 0 0 0 0 0 0 0 0 0 0 0 0 0 0 0 0 0 0 0 0 0 0 0 0 0 0
0 0 0 0 0 0 0 0 0 0 0 0 0 0 0 0 0 0 0 0 0 0 0 0 0 0 0 0 0 0 0 0 0 0 0 0 0 0 0 0 0 0 0
0 0 0 0 0 0 0 0 0 0 0 0 0 0 0 0 0 0 0 0 0 0 0 0 0 0 0 0 0 0 0 0 0 0 0 0 0 0 0 0 0 0 0
0 0 0 0 0 0 0 0 0 0 0 0 0 0 0 0 0 0 0 0 0 0 0 0 0 0 0 0 0 0 0 0 0 0 0 0 0 0 0 0 0 0 0
Wind_Speed
10 13 20 17 15 14 12 11 11 10 10 11 11 11 12 12 13 13 14 15 15 16 16 17 18 18 19 19 20 20 20 20 20 20 20 22 23 23 23 22 20 14 23
13 15 21 19 17 15 13 12 11 11 10 10 11 11 11 12 12 13 13 14 14 15 15 16 16 17 18 18 18 18 18 18 18 19 19 18 20 22 22 22 21 15 22
15 16 17 20 18 16 14 13 12 11 11 11 11 11 11 11 11 12 12 12 13 13 14 15 15 16 16 17 17 17 17 17 17 18 17 10 12 21 21 21 21 21 21
16 15 15 20 19 17 16 14 13 12 11 11 11 10 10 10 10 11 11 11 12 12 13 13 14 14 15 16 16 16 16 16 17 16 8 8 9 18 20 20 20 20 20
14 14 16 22 20 18 17 15 14 13 12 11 11 10 10 10 10 10 10 10 10 11 11 12 12 13 14 14 15 15 15 15 16 11 6 7 7 16 19 19 19 19 19
13 14 16 23 21 19 18 16 15 14 13 12 11 11 10 9 9 9 9 9 9 9 10 10 11 11 12 13 14 14 14 14 11 5 6 6 7 16 19 19 19 19 19
13 13 16 22 21 20 18 17 16 15 14 12 11 11 10 9 9 8 8 7 7 8 8 9 9 10 10 11 12 13 13 13 7 5 5 6 9 18 18 18 19 19 19
11 13 16 22 22 20 19 18 17 16 15 13 12 11 11 10 9 8 7 6 6 6 6 7 7 8 9 10 11 12 12 11 9 7 5 5 14 17 17 18 18 18 18
10 12 13 12 16 20 20 19 18 17 16 14 13 12 11 10 9 8 7 6 5 5 5 5 5 6 7 8 9 10 10 11 6 4 7 5 13 16 16 16 17 17 17
9 10 13 12 11 10 12 18 18 18 17 16 14 13 11 10 9 8 7 6 5 4 3 3 3 3 3 5 7 7 8 8 5 4 3 6 14 14 15 15 15 16 16
10 9 12 13 12 11 10 15 16 17 17 16 13 14 11 5 5 5 7 8 6 4 3 2 0 1 2 1 3 5 5 3 3 2 2 9 13 14 14 14 15 15 15
14 13 10 13 13 12 12 10 7 8 8 8 6 7 5 5 5 7 10 9 8 6 5 4 4 4 3 1 2 3 2 3 2 2 3 9 12 13 13 14 14 14 14
14 13 12 11 12 13 9 9 6 5 6 7 9 9 6 5 4 4 4 4 5 6 4 5 5 4 2 1 1 1 1 1 1 1 3 8 10 12 13 13 13 14 14
13 15 13 12 10 11 9 8 8 7 7 7 9 12 7 4 5 5 4 5 5 4 5 4 4 4 3 3 2 1 1 1 1 1 3 8 10 11 12 13 13 13 14
16 16 15 13 12 10 9 7 8 7 7 8 7 9 9 6 6 5 5 5 5 5 5 4 4 5 4 4 3 3 3 2 3 2 2 8 10 11 12 12 13 13 14
17 17 15 15 13 11 9 8 7 7 6 7 7 8 10 7 7 6 6 6 5 5 5 5 5 4 4 3 4 4 4 4 3 3 3 5 10 12 12 13 13 13 14
15 16 17 15 14 13 12 10 7 7 7 7 8 9 10 9 9 8 7 6 6 6 6 5 5 3 3 4 4 5 4 4 4 4 4 3 4 9 13 13 13 14 15
13 15 17 16 15 14 12 10 7 7 8 8 8 9 12 11 10 8 7 7 7 6 5 5 4 4 4 4 4 4 4 4 5 5 5 4 4 4 8 14 15 15 16
14 14 16 16 16 14 12 9 8 7 8 8 8 9 11 13 12 9 8 7 8 6 6 7 6 5 5 5 5 5 4 4 5 6 6 6 6 5 5 10 16 17 17
14 13 15 15 14 12 10 8 7 8 8 8 8 9 11 12 13 10 7 9 8 7 7 7 7 6 5 4 5 5 4 5 5 6 7 6 5 7 6 7 7 10 18
12 12 14 15 14 12 11 11 12 12 9 8 9 11 12 12 14 12 9 9 9 9 10 9 7 7 6 4 2 3 5 8 9 8 6 6 7 7 7 7 6 5 7
11 12 12 14 15 13 12 10 8 8 7 8 7 10 13 14 15 14 13 10 11 9 11 12 9 6 6 7 5 3 3 4 8 10 7 7 7 6 7 9 7 7 6
8 11 11 12 14 14 12 6 5 6 6 8 10 11 13 14 15 14 15 12 12 12 12 14 12 13 9 8 7 6 6 7 3 3 7 8 7 6 6 6 8 9 9
6 8 10 10 12 12 13 11 12 12 15 15 10 8 10 13 14 15 15 15 13 12 12 13 14 11 9 8 7 7 5 5 4 3 3 6 8 8 8 9 9 9 10
3 5 7 9 10 11 12 13 13 14 13 7 7 9 12 12 14 15 15 15 15 12 13 12 13 13 12 11 8 6 6 5 4 5 5 4 5 6 7 8 8 8 9
1 2 5 7 8 9 11 12 14 15 12 9 10 10 10 9 10 15 14 14 14 13 13 13 12 14 13 13 10 8 8 7 9 9 10 7 6 5 7 7 7 7 7
Wind_Direction
140 151 154 151 148 143 137 130 122 116 110 103 98 92 88 83 79 74 70 67 65 62 60 58 57 57 56 54 52 50 49 48 47 47 43 40 45 46 44 43 43 34 37
141 151 155 153 151 149 143 137 131 126 119 112 106 99 94 88 83 79 73 70 67 64 61 59 57 57 55 54 53 51 50 50 49 48 43 28 34 44 43 40 39 37 37
144 150 157 155 155 153 149 144 141 135 128 121 115 107 101 95 88 84 78 74 70 66 62 59 57 57 55 53 52 51 50 50 51 50 39 14 14 39 41 38 37 36 34
148 150 158 158 157 157 154 152 148 143 137 131 124 117 109 102 95 89 83 78 74 69 65 60 57 56 54 52 50 49 49 52 53 52 34 14 4 33 38 36 34 33 32
150 153 160 160 161 161 159 158 155 150 146 141 134 127 118 111 104 96 88 81 77 72 68 62 57 55 53 50 47 46 46 52 55 49 32 15 354 27 33 32 30 30 29
153 154 159 163 164 165 164 163 161 158 154 150 144 137 129 120 112 104 97 89 82 76 70 64 57 53 51 48 44 42 42 53 58 47 41 17 351 23 28 28 26 25 25
157 152 160 167 168 169 169 168 167 164 161 158 153 147 140 132 125 117 109 98 89 81 73 66 57 50 48 45 41 38 37 44 65 52 49 15 5 22 23 23 20 19 20
158 150 161 172 172 173 174 173 172 170 167 165 162 157 151 145 140 134 124 112 100 90 78 68 58 47 44 42 38 34 35 40 48 36 52 18 13 18 19 18 16 15 14
160 153 160 174 175 177 179 178 177 175 173 171 169 165 161 156 152 147 141 133 121 107 93 77 61 46 39 38 34 31 32 39 52 39 39 13 10 12 13 13 12 10 9
165 162 163 174 174 176 179 183 182 180 178 177 175 171 169 167 163 161 158 154 147 138 123 101 71 45 33 35 31 27 33 37 41 48 43 4 8 6 7 7 6 4 3
177 176 170 175 176 176 178 187 185 184 184 180 177 178 173 168 163 174 177 170 171 172 169 161 202 284 275 323 32 23 36 26 36 47 59 2 1 358 359 358 358 357 356
187 184 182 179 178 177 183 180 176 180 178 170 161 170 173 192 179 178 175 179 186 194 202 210 234 252 264 335 352 14 38 18 22 15 3 355 351 349 350 349 348 347 347
188 185 187 187 179 178 178 170 175 178 172 175 171 171 187 190 162 157 154 179 192 205 215 215 232 233 227 146 278 322 55 15 338 351 338 334 337 338 339 338 338 337 337
189 192 189 187 183 178 175 172 176 180 177 182 181 175 182 178 170 174 177 174 186 193 205 201 214 206 203 210 212 257 282 258 272 277 289 312 320 322 324 325 326 327 327
194 193 191 188 187 180 175 177 181 181 176 177 179 178 177 175 179 182 190 185 189 187 188 203 216 206 201 211 215 224 241 257 262 266 279 295 301 306 309 312 315 317 317
196 193 190 191 189 184 184 183 184 180 172 177 179 183 181 178 180 186 191 190 191 192 187 195 208 202 201 203 220 230 234 241 244 252 246 276 289 295 297 299 303 305 307
195 190 189 192 190 189 189 189 188 185 179 184 184 187 190 188 185 187 192 191 191 190 190 194 209 196 205 209 217 229 229 230 239 251 253 240 258 279 285 287 290 293 296
195 189 189 190 193 192 191 192 192 192 189 190 188 189 195 195 190 189 193 194 187 184 185 187 196 191 207 210 217 225 220 218 229 239 240 236 228 243 268 277 283 285 288
196 187 186 188 190 192 190 191 196 196 199 195 194 192 195 197 196 193 194 194 185 185 187 194 196 193 201 207 212 218 220 222 227 239 236 231 226 224 225 260 271 278 282
190 186 183 185 187 186 187 191 198 208 207 202 200 198 193 197 198 197 196 195 188 188 192 194 197 197 199 197 215 227 225 225 226 230 233 233 224 224 225 233 249 267 272
181 183 182 184 186 185 191 197 200 207 207 207 204 201 198 196 196 198 200 198 196 197 197 193 189 196 202 178 185 263 257 234 231 229 222 220 224 224 222 223 223 226 253
180 184 184 185 187 191 198 200 202 201 207 211 209 208 203 199 197 202 203 201 200 198 199 198 191 188 194 182 171 183 266 271 234 225 211 212 218 216 222 228 225 226 227
185 188 193 191 191 193 191 186 194 201 207 213 213 212 209 204 201 202 205 203 203 202 206 203 195 192 199 195 183 168 188 225 255 233 214 214 214 213 219 223 228 229 231
202 194 194 194 195 193 190 196 199 207 215 217 214 212 210 209 207 206 205 207 208 208 210 207 204 199 190 195 201 207 196 170 178 251 262 225 217 218 221 230 236 231 231
211 196 196 197 201 196 197 203 209 220 227 225 215 215 214 214 214 211 208 209 212 213 212 209 207 204 204 201 192 182 208 217 189 189 240 242 231 223 222 225 230 230 230
336 189 193 203 212 205 204 207 213 223 226 225 223 223 219 217 216 215 213 213 214 216 214 211 210 210 210 210 207 195 180 183 197 199 216 221 228 230 226 226 229 229 230